Back to catalog

COSMOS 2251 DEB

AliveLEO
NORAD 33938·DEBRIS·🇷🇺 Russia

Launched Jun 16, 1993 from Plesetsk Cosmodrome

Loading…

Next Passes (next 24 hours)

TLE

FreshSource: Space-Track

Epoch: Sep 14, 2026, 11:09 UTC

1 33938U 93036ET  26257.46521142  .00000960  00000-0  26751-3 0  9993
2 33938  74.0445  51.9758 0015718  66.8337 313.1244 14.47603441923895

Track COSMOS 2251 DEB in real time with AllMySat

Download on the App Store